Other Public Products
Issued by NWS Charleston, SC

Current Version | Previous Version | Graphics & Text | Print | Product List | Glossary On
Versions: 1 2 3 4 5 6 7 8 9 10 11 12 13 14 15 16 17 18 19 20 21 22 23 24 25 26 27 28 29 30 31 32 33 34 35 36 37 38 39 40 41 42 43 44 45 46 47 48 49 50
000
FPUS82 KCHS 202227
OPUCHS

TEST...KCHS/KSAV Gateway Observations...TEST
National Weather Service Charleston SC
600 PM EDT WED SEP 20 2017

NOTE: "fair" indicates few or no clouds below 12,000 feet with no
significant weather and/or obstructions to visibility.

SCZ050-WAZ558-NCZ071-TXZ119-213-PAZ071-DCZ001-FLZ074-172-MI076-
NYZ176-178-MAZ016-IL014-TNZ027-NJZ106-GAZ044-MD014-202300-

...Gateway Observations for Charleston International...

CITY           SKY/WX    TMP DP  RH WIND       PRES   REMARKS
Chas Airport   MOSUNNY   84  72  67 S9        29.96S
Seattle        PTSUNNY   55  48  77 S7        29.74R
Charlotte      MOSUNNY   87  66  49 CALM      29.98S
Dallas DFW     MOSUNNY   98  69  38 S16G24    29.79F HX 104
Dallas Love    MOSUNNY   95  70  44 S15       29.80F HX 101
Philladelphia  MOSUNNY   85  61  44 N10G23    29.90R
Wash National  MOSUNNY   85  64  49 NW9       29.93R
Baltimore      MOSUNNY   84  61  45 VRB7      29.92R
Miami          PTSUNNY   88  71  57 E9        29.93R HX  94
Detroit        MOSUNNY   80  68  66 SE8       29.99R
Newark         MOCLDY    79  63  57 N18G25    29.90R
Laguardia      CLOUDY    78  65  63 N14G25    29.89R
J F K          MOCLDY    78  65  63 N16G23    29.89R
Boston Logan   CLOUDY    69  66  90 N21G26    29.87S
Ft. Lauderdale PTSUNNY   88  74  63 E12       29.93R HX  96
Chicago O`Hare MOSUNNY   91  66  43 S20       29.84F HX  93
Chicago Midway SUNNY     92  67  43 S16G26    29.85F HX  95
Houston Bush   LGT RAIN  85  75  72 S5        29.88S HX  93
Houston Hobby  TSTM      80  73  79 NW17      29.90R
Nashville      LGT RAIN  88  70  55 VRB3      29.99S HX  93
Atlanta        PTSUNNY   86  64  47 NW8       30.00F

$$

GAZ044-118-TXZ119-213-NCZ071-DCZ001-MDZ014-506-PAZ021-071-NJZ106-
NYZ176-178-MAZ106-OHZ011-021-055-MIZ076-KYZ091-ILZ014-INZ047-
MNZ060-ONZ431-202300-

...Gateway Observations for Savannah International...

CITY           SKY/WX    TMP DP  RH WIND       PRES   REMARKS
Savannah Arpt  PTSUNNY   85  71  63 S15       29.97R HX  90
Atlanta        PTSUNNY   86  64  47 NW8       30.00F
Charlotte      MOSUNNY   87  66  49 CALM      29.98S
Dallas DFW     MOSUNNY   98  69  38 S16G24    29.79F HX 104
Houston Bush   LGT RAIN  85  75  72 S5        29.88S HX  93
Wash National  MOSUNNY   85  64  49 NW9       29.93R
Wash Dulles    MOSUNNY   85  57  38 N9        29.94R
Baltimore      MOSUNNY   84  61  45 VRB7      29.92R
Philadelphia   MOSUNNY   85  61  44 N10G23    29.90R
Newark         MOCLDY    79  63  57 N18G25    29.90R
Laguardia      CLOUDY    78  65  63 N14G25    29.89R
J F K          MOCLDY    78  65  63 N16G23    29.89R
Boston         CLOUDY    69  66  90 N21G26    29.87S
Pittsburg      MOSUNNY   81  62  52 CALM      30.01S
Akron          CLOUDY    83  63  50 S8        30.01S
Cleveland      MOSUNNY   83  64  52 N9        30.01S
Cincinnati     MOSUNNY   84  70  62 W7        30.01R
Columbus       CLOUDY    82  65  57 NW5       30.00R
Detroit        MOSUNNY   80  68  66 SE8       29.99R
Chicago O`Hare MOSUNNY   91  66  43 S20       29.84F HX  93
Minneapolis    SUNNY     74  52  46 W8        29.85R
Indianapolis   MOSUNNY   88  67  49 SW7       29.96F HX  91
Toronto Canada MOSUNNY   75  63  64 E8        30.03R

$$




USA.gov is the U.S. government's official web portal to all federal, state and local government web resources and services.